,,,PA_Meas_PMT16A,,PR_Meas_QMR101_102,,RH_Meas_QMH101,,SR_Meas_QMS101,,TA_Meas_QMH101,,GenWind,,GenWind,
date,time,status,PA,status,PR,status,RH,status,SR,status,TA,status,DirAvg,status,SpdAvg,
2010-11-02, 00:00:04,VALID,999.045,VALID,0,VALID,91.6012,VALID,0,VALID,23.7597,VALID,114,VALID,1.58047,
2010-11-02, 00:01:04,VALID,999.023,VALID,0,VALID,91.6699,VALID,0,VALID,23.7597,VALID,114,VALID,1.6707,
2010-11-02, 00:02:04,VALID,999.048,VALID,0,VALID,91.7614,VALID,0,VALID,23.7597,VALID,115,VALID,1.34336,
2010-11-02, 00:03:04,VALID,999.016,VALID,0,VALID,91.853,VALID,0,VALID,23.7384,VALID,113,VALID,1.11523,
2010-11-02, 00:04:04,VALID,998.984,VALID,0,VALID,91.9598,VALID,0,VALID,23.7793,VALID,119,VALID,0.425781,
2010-11-02, 00:05:04,VALID,998.964,VALID,0,VALID,92.0361,VALID,0,VALID,23.7579,VALID,119,VALID,0.675,
2010-11-02, 00:06:04,VALID,998.907,VALID,0,VALID,92.0666,VALID,0,VALID,23.7384,VALID,114,VALID,0.721484,
2010-11-02, 00:07:04,VALID,998.886,VALID,0,VALID,92.1277,VALID,0,VALID,23.7402,VALID,114,VALID,0.428906,
2010-11-02, 00:08:04,VALID,998.828,VALID,0,VALID,92.1658,VALID,0,VALID,23.7189,VALID,104,VALID,0.697656,
2010-11-02, 00:09:04,VALID,998.803,VALID,0,VALID,92.1963,VALID,0,VALID,23.7189,VALID,103,VALID,0.611328,
2010-11-02, 00:10:04,VALID,998.76,VALID,0,VALID,92.1963,VALID,0,VALID,23.7207,VALID,118,VALID,0.908203,
2010-11-02, 00:11:04,VALID,998.771,VALID,0,VALID,92.1963,VALID,0,VALID,23.6994,VALID,97,VALID,0.989453,
2010-11-02, 00:12:04,VALID,998.743,VALID,0,VALID,92.1887,VALID,0,VALID,23.6994,VALID,122,VALID,0.760938,
2010-11-02, 00:13:04,VALID,998.727,VALID,0,VALID,92.12,VALID,0,VALID,23.7189,VALID,112,VALID,0.951563,
2010-11-02, 00:14:04,VALID,998.725,VALID,0,VALID,92.0514,VALID,0,VALID,23.6994,VALID,112,VALID,0.756641,
2010-11-02, 00:15:04,VALID,998.733,VALID,0,VALID,91.998,VALID,0,VALID,23.7189,VALID,109,VALID,1.00195,
2010-11-02, 00:16:04,VALID,998.746,VALID,0,VALID,91.9827,VALID,0,VALID,23.7402,VALID,109,VALID,0.679297,
2010-11-02, 00:17:04,VALID,998.786,VALID,0,VALID,91.9522,VALID,0,VALID,23.7597,VALID,111,VALID,0.393359,
2010-11-02, 00:18:04,VALID,998.788,VALID,0,VALID,91.9522,VALID,0,VALID,23.7189,VALID,114,VALID,0.105859,
2010-11-02, 00:19:04,VALID,998.796,VALID,0,VALID,91.9598,VALID,0,VALID,23.7402,VALID,114,VALID,0.167578,
2010-11-02, 00:20:04,VALID,998.813,VALID,0,VALID,91.9674,VALID,0,VALID,23.7597,VALID,114,VALID,0.317187,
2010-11-02, 00:21:04,VALID,998.815,VALID,0,VALID,92.0132,VALID,0,VALID,23.7384,VALID,114,VALID,0.250781,
2010-11-02, 00:22:04,VALID,998.841,VALID,0,VALID,92.0285,VALID,0,VALID,23.7384,VALID,114,VALID,0,
2010-11-02, 00:23:04,VALID,998.857,VALID,0,VALID,92.0437,VALID,0,VALID,23.7189,VALID,114,VALID,0,
2010-11-02, 00:24:04,VALID,998.862,VALID,0,VALID,92.0819,VALID,0,VALID,23.7384,VALID,114,VALID,0.275,
2010-11-02, 00:25:04,VALID,998.825,VALID,0,VALID,92.0819,VALID,0,VALID,23.6994,VALID,114,VALID,0.121875,
2010-11-02, 00:26:04,VALID,998.812,VALID,0,VALID,92.0971,VALID,0,VALID,23.6994,VALID,114,VALID,0,
2010-11-02, 00:27:04,VALID,998.86,VALID,0,VALID,92.1353,VALID,0,VALID,23.6994,VALID,114,VALID,0,
2010-11-02, 00:28:04,VALID,998.832,VALID,0,VALID,92.1506,VALID,0,VALID,23.6994,VALID,114,VALID,0,
2010-11-02, 00:29:04,VALID,998.767,VALID,0,VALID,92.1658,VALID,0,VALID,23.6799,VALID,114,VALID,0,
2010-11-02, 00:30:04,VALID,998.793,VALID,0,VALID,92.2116,VALID,0,VALID,23.6799,VALID,114,VALID,0.0316406,
2010-11-02, 00:31:04,VALID,998.78,VALID,0,VALID,92.2574,VALID,0,VALID,23.6799,VALID,114,VALID,0.280469,
2010-11-02, 00:32:04,VALID,998.743,VALID,0,VALID,92.265,VALID,0,VALID,23.6604,VALID,114,VALID,0.571094,
2010-11-02, 00:33:04,VALID,998.739,VALID,0,VALID,92.2955,VALID,0,VALID,23.6604,VALID,77,VALID,0.841797,
2010-11-02, 00:34:04,VALID,998.732,VALID,0,VALID,92.3031,VALID,0,VALID,23.6409,VALID,77,VALID,0.810547,
2010-11-02, 00:35:04,VALID,998.767,VALID,0,VALID,92.3031,VALID,0,VALID,23.6409,VALID,77,VALID,0.855469,
2010-11-02, 00:36:04,VALID,998.743,VALID,0,VALID,92.3031,VALID,0,VALID,23.6409,VALID,77,VALID,0.64375,
2010-11-02, 00:37:04,VALID,998.732,VALID,0,VALID,92.3031,VALID,0,VALID,23.6604,VALID,77,VALID,0.549219,
2010-11-02, 00:38:04,VALID,998.723,VALID,0,VALID,92.2803,VALID,0,VALID,23.6799,VALID,77,VALID,0.336328,
2010-11-02, 00:39:04,VALID,998.719,VALID,0,VALID,92.2955,VALID,0,VALID,23.6799,VALID,77,VALID,0.198828,
2010-11-02, 00:40:04,VALID,998.69,VALID,0,VALID,92.3031,VALID,0,VALID,23.6799,VALID,77,VALID,0.182031,
2010-11-02, 00:41:04,VALID,998.672,VALID,0,VALID,92.2955,VALID,0,VALID,23.6799,VALID,77,VALID,0,
2010-11-02, 00:42:04,VALID,998.671,VALID,0,VALID,92.2879,VALID,0,VALID,23.6994,VALID,77,VALID,0,
2010-11-02, 00:43:04,VALID,998.659,VALID,0,VALID,92.2955,VALID,0,VALID,23.6799,VALID,77,VALID,0.18125,
2010-11-02, 00:44:04,VALID,998.654,VALID,0,VALID,92.3108,VALID,0,VALID,23.6799,VALID,77,VALID,0.322656,
2010-11-02, 00:45:04,VALID,998.641,VALID,0,VALID,92.3184,VALID,0,VALID,23.6799,VALID,77,VALID,0.676562,
2010-11-02, 00:46:04,VALID,998.637,VALID,0,VALID,92.3031,VALID,0,VALID,23.6994,VALID,77,VALID,0.795703,
2010-11-02, 00:47:04,VALID,998.64,VALID,0,VALID,92.3184,VALID,0,VALID,23.6994,VALID,70,VALID,0.794922,
2010-11-02, 00:48:04,VALID,998.639,VALID,0,VALID,92.2955,VALID,0,VALID,23.6994,VALID,70,VALID,0.640234,
2010-11-02, 00:49:04,VALID,998.639,VALID,0,VALID,92.2879,VALID,0,VALID,23.7207,VALID,70,VALID,0.86875,
2010-11-02, 00:50:04,VALID,998.635,VALID,0,VALID,92.2726,VALID,0,VALID,23.6994,VALID,70,VALID,0.643359,
2010-11-02, 00:51:04,VALID,998.619,VALID,0,VALID,92.2726,VALID,0,VALID,23.6994,VALID,70,VALID,0.516406,
2010-11-02, 00:52:04,VALID,998.65,VALID,0,VALID,92.2726,VALID,0,VALID,23.6994,VALID,70,VALID,0.482812,
2010-11-02, 00:53:04,VALID,998.645,VALID,0,VALID,92.3108,VALID,0,VALID,23.7189,VALID,70,VALID,0.702734,
2010-11-02, 00:54:04,VALID,998.635,VALID,0,VALID,92.2955,VALID,0,VALID,23.6994,VALID,70,VALID,0.644922,
2010-11-02, 00:55:04,VALID,998.631,VALID,0,VALID,92.3031,VALID,0,VALID,23.6799,VALID,70,VALID,0.562109,
2010-11-02, 00:56:04,VALID,998.624,VALID,0,VALID,92.2803,VALID,0,VALID,23.6994,VALID,70,VALID,0.692969,
2010-11-02, 00:57:04,VALID,998.604,VALID,0,VALID,92.2497,VALID,0,VALID,23.7012,VALID,70,VALID,0.721875,
2010-11-02, 00:58:04,VALID,998.624,VALID,0.5,VALID,92.2421,VALID,0,VALID,23.6994,VALID,70,VALID,0.587109,
2010-11-02, 00:59:04,VALID,998.615,VALID,0,VALID,92.2268,VALID,0,VALID,23.6799,VALID,70,VALID,0.525781,
2010-11-02, 01:00:04,VALID,998.597,VALID,0,VALID,92.1963,VALID,0,VALID,23.6799,VALID,70,VALID,0.778516,
2010-11-02, 01:01:04,VALID,998.584,VALID,0,VALID,92.1734,VALID,0.112286,VALID,23.6799,VALID,70,VALID,0.741016,
2010-11-02, 01:02:04,VALID,998.556,VALID,0,VALID,92.1429,VALID,0,VALID,23.6604,VALID,70,VALID,0.794922,
2010-11-02, 01:03:04,VALID,998.588,VALID,0,VALID,92.1582,VALID,0,VALID,23.6799,VALID,70,VALID,0.670313,
2010-11-02, 01:04:04,VALID,998.56,VALID,0,VALID,92.1582,VALID,0,VALID,23.6799,VALID,70,VALID,0.791016,
2010-11-02, 01:05:04,VALID,998.557,VALID,0,VALID,92.1887,VALID,0,VALID,23.6604,VALID,70,VALID,0.981641,
2010-11-02, 01:06:04,VALID,998.548,VALID,0,VALID,92.2421,VALID,0,VALID,23.6604,VALID,79,VALID,1.09805,
2010-11-02, 01:07:04,VALID,998.571,VALID,0,VALID,92.2726,VALID,0,VALID,23.6409,VALID,86,VALID,1.02109,
2010-11-02, 01:08:04,VALID,998.563,VALID,0.5,VALID,92.2955,VALID,0,VALID,23.6214,VALID,85,VALID,1.0875,
2010-11-02, 01:09:04,VALID,998.564,VALID,0,VALID,92.326,VALID,0,VALID,23.6622,VALID,87,VALID,1.00625,
2010-11-02, 01:10:04,VALID,998.57,VALID,0,VALID,92.3566,VALID,0,VALID,23.6409,VALID,94,VALID,1.09336,
2010-11-02, 01:11:04,VALID,998.521,VALID,0,VALID,92.3794,VALID,0,VALID,23.6232,VALID,97,VALID,1.15195,
2010-11-02, 01:12:04,VALID,998.518,VALID,0,VALID,92.4176,VALID,0,VALID,23.6214,VALID,99,VALID,0.729688,
2010-11-02, 01:13:04,VALID,998.52,VALID,0,VALID,92.4557,VALID,0,VALID,23.6214,VALID,96,VALID,1.10859,
2010-11-02, 01:14:04,VALID,998.476,VALID,0,VALID,92.471,VALID,0,VALID,23.6019,VALID,85,VALID,1.18555,
2010-11-02, 01:15:04,VALID,998.486,VALID,0.5,VALID,92.4863,VALID,0,VALID,23.6019,VALID,82,VALID,0.967188,
2010-11-02, 01:16:04,VALID,998.486,VALID,0,VALID,92.5244,VALID,0,VALID,23.6019,VALID,88,VALID,0.942578,
2010-11-02, 01:17:04,VALID,998.452,VALID,0,VALID,92.5397,VALID,0,VALID,23.6232,VALID,86,VALID,1.1332,
2010-11-02, 01:18:04,VALID,998.44,VALID,0,VALID,92.5931,VALID,0,VALID,23.5823,VALID,84,VALID,0.852344,
2010-11-02, 01:19:04,VALID,998.42,VALID,0,VALID,92.6007,VALID,0,VALID,23.5628,VALID,84,VALID,0.641406,
2010-11-02, 01:20:04,VALID,998.42,VALID,0,VALID,92.6236,VALID,0,VALID,23.5628,VALID,84,VALID,0.658984,
2010-11-02, 01:21:04,VALID,998.418,VALID,0,VALID,92.6541,VALID,0,VALID,23.5433,VALID,84,VALID,0.776953,
2010-11-02, 01:22:04,VALID,998.384,VALID,0,VALID,92.6923,VALID,0,VALID,23.5433,VALID,84,VALID,0.309375,
2010-11-02, 01:23:04,VALID,998.398,VALID,0,VALID,92.6999,VALID,0,VALID,23.5433,VALID,84,VALID,0.189453,
2010-11-02, 01:24:04,VALID,998.373,VALID,0,VALID,92.7228,VALID,0,VALID,23.5238,VALID,84,VALID,0.274609,
2010-11-02, 01:25:04,VALID,998.339,VALID,0.5,VALID,92.7304,VALID,0.112286,VALID,23.5238,VALID,84,VALID,0.431641,
2010-11-02, 01:26:04,VALID,998.357,VALID,0,VALID,92.7762,VALID,0,VALID,23.5043,VALID,84,VALID,0.248047,
2010-11-02, 01:27:04,VALID,998.357,VALID,0,VALID,92.7838,VALID,0,VALID,23.5061,VALID,84,VALID,0.154687,
2010-11-02, 01:28:04,VALID,998.335,VALID,0,VALID,92.822,VALID,0,VALID,23.4848,VALID,84,VALID,0.15625,
2010-11-02, 01:29:04,VALID,998.347,VALID,0,VALID,92.8372,VALID,0,VALID,23.4848,VALID,84,VALID,0.241406,
2010-11-02, 01:30:04,VALID,998.343,VALID,0,VALID,92.8906,VALID,0,VALID,23.4653,VALID,84,VALID,0.153125,
2010-11-02, 01:31:04,VALID,998.294,VALID,0,VALID,92.9364,VALID,0,VALID,23.4866,VALID,84,VALID,0.196875,
2010-11-02, 01:32:04,VALID,998.317,VALID,0,VALID,92.944,VALID,0,VALID,23.4653,VALID,84,VALID,0.0945313,
2010-11-02, 01:33:04,VALID,998.293,VALID,0,VALID,92.9974,VALID,0,VALID,23.4653,VALID,84,VALID,0,
2010-11-02, 01:34:04,VALID,998.272,VALID,0,VALID,93.0051,VALID,0,VALID,23.4653,VALID,84,VALID,0.0765625,
2010-11-02, 01:35:04,VALID,998.262,VALID,0.5,VALID,93.0356,VALID,0,VALID,23.4671,VALID,84,VALID,0,
2010-11-02, 01:36:04,VALID,998.23,VALID,0,VALID,93.0737,VALID,0,VALID,23.4671,VALID,84,VALID,0,
2010-11-02, 01:37:04,VALID,998.23,VALID,0,VALID,93.0966,VALID,0,VALID,23.4475,VALID,84,VALID,0,
2010-11-02, 01:38:04,VALID,998.216,VALID,0,VALID,93.089,VALID,0,VALID,23.4458,VALID,84,VALID,0,
2010-11-02, 01:39:04,VALID,998.172,VALID,0,VALID,93.1577,VALID,0,VALID,23.4653,VALID,84,VALID,0,
2010-11-02, 01:40:04,VALID,998.181,VALID,0,VALID,93.1577,VALID,0,VALID,23.4866,VALID,84,VALID,0,
2010-11-02, 01:41:04,VALID,998.159,VALID,0,VALID,93.1729,VALID,0,VALID,23.4848,VALID,84,VALID,0,
2010-11-02, 01:42:04,VALID,998.125,VALID,0,VALID,93.1882,VALID,0,VALID,23.4848,VALID,84,VALID,0,
2010-11-02, 01:43:04,VALID,998.145,VALID,0,VALID,93.1805,VALID,0,VALID,23.4848,VALID,84,VALID,0,
2010-11-02, 01:44:04,VALID,998.114,VALID,0,VALID,93.2263,VALID,0,VALID,23.4848,VALID,84,VALID,0,
2010-11-02, 01:45:04,VALID,998.107,VALID,0.5,VALID,93.2416,VALID,0,VALID,23.5061,VALID,84,VALID,0,
2010-11-02, 01:46:04,VALID,998.107,VALID,0,VALID,93.234,VALID,0,VALID,23.4848,VALID,84,VALID,0,
2010-11-02, 01:47:04,VALID,998.065,VALID,0,VALID,93.2492,VALID,0,VALID,23.4848,VALID,84,VALID,0,
2010-11-02, 01:48:04,VALID,998.082,VALID,0,VALID,93.2568,VALID,0,VALID,23.4458,VALID,84,VALID,0,
2010-11-02, 01:49:04,VALID,998.085,VALID,0,VALID,93.2721,VALID,0,VALID,23.4653,VALID,84,VALID,0,
2010-11-02, 01:50:04,VALID,998.062,VALID,0,VALID,93.2568,VALID,0,VALID,23.4653,VALID,84,VALID,0,
2010-11-02, 01:51:04,VALID,998.057,VALID,0,VALID,93.2797,VALID,0,VALID,23.4653,VALID,84,VALID,0.326172,
2010-11-02, 01:52:04,VALID,998.073,VALID,0,VALID,93.2721,VALID,0,VALID,23.4671,VALID,84,VALID,0.401172,
2010-11-02, 01:53:04,VALID,998.065,VALID,0,VALID,93.2721,VALID,0,VALID,23.4458,VALID,94,VALID,0.45625,
2010-11-02, 01:54:04,VALID,998.071,VALID,0,VALID,93.2874,VALID,0,VALID,23.4653,VALID,128,VALID,0.43125,
2010-11-02, 01:55:04,VALID,998.041,VALID,0,VALID,93.2568,VALID,0.112286,VALID,23.4458,VALID,197,VALID,0.505859,
2010-11-02, 01:56:04,VALID,998.045,VALID,0.5,VALID,93.2492,VALID,0,VALID,23.4848,VALID,197,VALID,0.476172,
2010-11-02, 01:57:04,VALID,998.046,VALID,0,VALID,93.2416,VALID,0,VALID,23.4653,VALID,197,VALID,0.2,
2010-11-02, 01:58:04,VALID,998.042,VALID,0,VALID,93.2263,VALID,0,VALID,23.4653,VALID,197,VALID,0,
2010-11-02, 01:59:04,VALID,998.019,VALID,0,VALID,93.2034,VALID,0,VALID,23.4458,VALID,197,VALID,0.544141,
2010-11-02, 02:00:04,VALID,998.016,VALID,0,VALID,93.1958,VALID,0.112286,VALID,23.4458,VALID,197,VALID,0.329688,
2010-11-02, 02:01:04,VALID,998.015,VALID,0,VALID,93.1577,VALID,0,VALID,23.4671,VALID,197,VALID,0.366016,
2010-11-02, 02:02:04,VALID,998.016,VALID,0,VALID,93.1424,VALID,0,VALID,23.4475,VALID,197,VALID,0.274609,
2010-11-02, 02:03:04,VALID,997.982,VALID,0,VALID,93.1119,VALID,0,VALID,23.4263,VALID,197,VALID,0.410547,
2010-11-02, 02:04:04,VALID,998.007,VALID,0,VALID,93.0585,VALID,0,VALID,23.4067,VALID,197,VALID,0.448047,
2010-11-02, 02:05:04,VALID,998.006,VALID,0,VALID,92.9898,VALID,0,VALID,23.4067,VALID,197,VALID,0.417188,
2010-11-02, 02:06:04,VALID,998.017,VALID,0,VALID,92.9211,VALID,0,VALID,23.4671,VALID,197,VALID,0.594531,
2010-11-02, 02:07:04,VALID,998.003,VALID,0,VALID,92.8983,VALID,0,VALID,23.4653,VALID,197,VALID,0.625,
2010-11-02, 02:08:04,VALID,997.996,VALID,0.5,VALID,92.8448,VALID,0,VALID,23.4848,VALID,197,VALID,0.763281,
2010-11-02, 02:09:04,VALID,997.986,VALID,0,VALID,92.7914,VALID,0,VALID,23.5238,VALID,197,VALID,0.715234,
2010-11-02, 02:10:04,VALID,997.969,VALID,0,VALID,92.7914,VALID,0,VALID,23.5433,VALID,197,VALID,0.373828,
2010-11-02, 02:11:04,VALID,997.955,VALID,0,VALID,92.7762,VALID,0,VALID,23.5433,VALID,197,VALID,0.475391,
2010-11-02, 02:12:04,VALID,997.93,VALID,0,VALID,92.7533,VALID,0,VALID,23.5433,VALID,197,VALID,0.339844,
2010-11-02, 02:13:04,VALID,997.922,VALID,0,VALID,92.7685,VALID,0,VALID,23.5433,VALID,197,VALID,0.433203,
2010-11-02, 02:14:04,VALID,997.913,VALID,0,VALID,92.738,VALID,0,VALID,23.5841,VALID,197,VALID,0.357031,
2010-11-02, 02:15:04,VALID,997.925,VALID,0,VALID,92.738,VALID,0,VALID,23.5628,VALID,197,VALID,0.60625,
2010-11-02, 02:16:04,VALID,997.897,VALID,0,VALID,92.7457,VALID,0,VALID,23.5823,VALID,189,VALID,0.842969,
2010-11-02, 02:17:04,VALID,997.865,VALID,0,VALID,92.7304,VALID,0,VALID,23.5823,VALID,189,VALID,0.635938,
2010-11-02, 02:18:04,VALID,997.844,VALID,0,VALID,92.7075,VALID,0,VALID,23.5841,VALID,189,VALID,0.360156,
2010-11-02, 02:19:04,VALID,997.806,VALID,0,VALID,92.677,VALID,0,VALID,23.5628,VALID,189,VALID,0.299219,
2010-11-02, 02:20:04,VALID,997.818,VALID,0,VALID,92.6465,VALID,0,VALID,23.6036,VALID,189,VALID,0.396094,
2010-11-02, 02:21:04,VALID,997.79,VALID,0,VALID,92.677,VALID,0,VALID,23.5628,VALID,189,VALID,0.320313,
2010-11-02, 02:22:04,VALID,997.792,VALID,0,VALID,92.6465,VALID,0,VALID,23.5238,VALID,189,VALID,0.295312,
2010-11-02, 02:23:04,VALID,997.791,VALID,0,VALID,92.6312,VALID,0,VALID,23.5238,VALID,189,VALID,0.50625,
2010-11-02, 02:24:04,VALID,997.788,VALID,0,VALID,92.6312,VALID,0,VALID,23.5256,VALID,176,VALID,0.596094,
2010-11-02, 02:25:04,VALID,997.749,VALID,0,VALID,92.616,VALID,0,VALID,23.4848,VALID,176,VALID,0.684766,
2010-11-02, 02:26:04,VALID,997.791,VALID,0,VALID,92.5778,VALID,0,VALID,23.4848,VALID,176,VALID,0.696484,
2010-11-02, 02:27:04,VALID,997.78,VALID,0,VALID,92.5854,VALID,0,VALID,23.5451,VALID,187,VALID,0.503906,
2010-11-02, 02:28:04,VALID,997.742,VALID,0,VALID,92.6007,VALID,0,VALID,23.5238,VALID,188,VALID,0.439453,
2010-11-02, 02:29:04,VALID,997.763,VALID,0,VALID,92.5778,VALID,0,VALID,23.5238,VALID,188,VALID,0.613672,
2010-11-02, 02:30:04,VALID,997.74,VALID,0,VALID,92.5549,VALID,0,VALID,23.5256,VALID,188,VALID,0.446094,
2010-11-02, 02:31:04,VALID,997.713,VALID,0,VALID,92.5397,VALID,0,VALID,23.5256,VALID,188,VALID,0.5,
2010-11-02, 02:32:04,VALID,997.688,VALID,0,VALID,92.4863,VALID,0,VALID,23.5256,VALID,187,VALID,0.600781,
2010-11-02, 02:33:04,VALID,997.693,VALID,0.5,VALID,92.4328,VALID,0,VALID,23.4848,VALID,187,VALID,0.592969,
2010-11-02, 02:34:04,VALID,997.698,VALID,0,VALID,92.3718,VALID,0,VALID,23.5061,VALID,187,VALID,0.405078,
2010-11-02, 02:35:04,VALID,997.674,VALID,0,VALID,92.3184,VALID,0,VALID,23.4848,VALID,187,VALID,0.144531,
2010-11-02, 02:36:04,VALID,997.692,VALID,0,VALID,92.2955,VALID,0,VALID,23.4458,VALID,187,VALID,0.305469,
2010-11-02, 02:37:04,VALID,997.68,VALID,0,VALID,92.265,VALID,0,VALID,23.4458,VALID,187,VALID,0.0976563,
2010-11-02, 02:38:04,VALID,997.68,VALID,0,VALID,92.2879,VALID,0,VALID,23.4263,VALID,187,VALID,0,
2010-11-02, 02:39:04,VALID,997.676,VALID,0,VALID,92.2955,VALID,0,VALID,23.4263,VALID,187,VALID,0.283984,
2010-11-02, 02:40:04,VALID,997.678,VALID,0,VALID,92.3794,VALID,0,VALID,23.4458,VALID,187,VALID,0.206641,
2010-11-02, 02:41:04,VALID,997.696,VALID,0,VALID,92.4557,VALID,0,VALID,23.4458,VALID,187,VALID,0.265625,
2010-11-02, 02:42:04,VALID,997.662,VALID,0,VALID,92.532,VALID,0,VALID,23.4671,VALID,187,VALID,0.420703,
2010-11-02, 02:43:04,VALID,997.671,VALID,0,VALID,92.5854,VALID,0,VALID,23.4458,VALID,187,VALID,0.421484,
2010-11-02, 02:44:04,VALID,997.639,VALID,0,VALID,92.6617,VALID,0,VALID,23.4475,VALID,187,VALID,0.3375,
2010-11-02, 02:45:04,VALID,997.634,VALID,0,VALID,92.7151,VALID,0,VALID,23.4458,VALID,187,VALID,0.244141,
2010-11-02, 02:46:04,VALID,997.589,VALID,0,VALID,92.7609,VALID,0,VALID,23.4263,VALID,187,VALID,0.334766,
2010-11-02, 02:47:04,VALID,997.629,VALID,0,VALID,92.822,VALID,0,VALID,23.4475,VALID,187,VALID,0.255469,
2010-11-02, 02:48:04,VALID,997.569,VALID,0,VALID,92.8601,VALID,0,VALID,23.4475,VALID,187,VALID,0.328516,
2010-11-02, 02:49:04,VALID,997.592,VALID,0,VALID,92.9211,VALID,0,VALID,23.4475,VALID,187,VALID,0.404297,
2010-11-02, 02:50:04,VALID,997.599,VALID,0,VALID,92.9593,VALID,0,VALID,23.428,VALID,187,VALID,0.329688,
2010-11-02, 02:51:04,VALID,997.603,VALID,0,VALID,93.0127,VALID,0,VALID,23.428,VALID,187,VALID,0.353906,
2010-11-02, 02:52:04,VALID,997.581,VALID,0,VALID,93.0127,VALID,0,VALID,23.4067,VALID,187,VALID,0.307813,
2010-11-02, 02:53:04,VALID,997.608,VALID,0,VALID,93.0585,VALID,0,VALID,23.4263,VALID,187,VALID,0.366016,
2010-11-02, 02:54:04,VALID,997.604,VALID,0,VALID,93.0966,VALID,0,VALID,23.428,VALID,187,VALID,0.319141,
2010-11-02, 02:55:04,VALID,997.612,VALID,0,VALID,93.1119,VALID,0,VALID,23.4067,VALID,187,VALID,0.260156,
2010-11-02, 02:56:04,VALID,997.606,VALID,0,VALID,93.15,VALID,0,VALID,23.4067,VALID,187,VALID,0.433984,
2010-11-02, 02:57:04,VALID,997.637,VALID,0,VALID,93.1729,VALID,0,VALID,23.4067,VALID,187,VALID,0.214844,
2010-11-02, 02:58:04,VALID,997.61,VALID,0,VALID,93.1958,VALID,0,VALID,23.4263,VALID,187,VALID,0.0820313,
2010-11-02, 02:59:04,VALID,997.614,VALID,0,VALID,93.2111,VALID,0,VALID,23.4067,VALID,187,VALID,0.150781,
2010-11-02, 03:00:04,VALID,997.606,VALID,0,VALID,93.2034,VALID,0,VALID,23.4067,VALID,187,VALID,0,
2010-11-02, 03:01:04,VALID,997.618,VALID,0,VALID,93.2492,VALID,0,VALID,23.4067,VALID,187,VALID,0,
2010-11-02, 03:02:04,VALID,997.585,VALID,0,VALID,93.2645,VALID,0,VALID,23.3872,VALID,187,VALID,0,
2010-11-02, 03:03:04,VALID,997.613,VALID,0,VALID,93.2721,VALID,0,VALID,23.4085,VALID,187,VALID,0,
2010-11-02, 03:04:04,VALID,997.633,VALID,0,VALID,93.2797,VALID,0,VALID,23.3872,VALID,187,VALID,0.135156,
2010-11-02, 03:05:04,VALID,997.629,VALID,0,VALID,93.295,VALID,0,VALID,23.4085,VALID,187,VALID,0.441406,
2010-11-02, 03:06:04,VALID,997.64,VALID,0,VALID,93.3179,VALID,0,VALID,23.4067,VALID,163,VALID,0.726172,
2010-11-02, 03:07:04,VALID,997.646,VALID,0,VALID,93.3331,VALID,0,VALID,23.4067,VALID,142,VALID,0.863672,
2010-11-02, 03:08:04,VALID,997.653,VALID,0,VALID,93.3179,VALID,0,VALID,23.4067,VALID,142,VALID,0.914063,
2010-11-02, 03:09:04,VALID,997.667,VALID,0,VALID,93.3331,VALID,0,VALID,23.4067,VALID,142,VALID,1.03281,
2010-11-02, 03:10:04,VALID,997.716,VALID,0,VALID,93.3408,VALID,0,VALID,23.4067,VALID,137,VALID,0.913672,
2010-11-02, 03:11:04,VALID,997.663,VALID,0,VALID,93.3408,VALID,0,VALID,23.3872,VALID,128,VALID,0.861328,
2010-11-02, 03:12:04,VALID,997.707,VALID,0,VALID,93.3637,VALID,0,VALID,23.3872,VALID,124,VALID,0.86875,
2010-11-02, 03:13:04,VALID,997.712,VALID,0,VALID,93.3789,VALID,0,VALID,23.3677,VALID,119,VALID,0.911328,
2010-11-02, 03:14:04,VALID,997.725,VALID,0,VALID,93.3866,VALID,0,VALID,23.3677,VALID,115,VALID,0.778906,
2010-11-02, 03:15:04,VALID,997.726,VALID,0,VALID,93.3637,VALID,0,VALID,23.3287,VALID,97,VALID,0.799219,
2010-11-02, 03:16:04,VALID,997.726,VALID,0,VALID,93.3713,VALID,0,VALID,23.3092,VALID,97,VALID,0.503906,
2010-11-02, 03:17:04,VALID,997.764,VALID,0,VALID,93.3789,VALID,0,VALID,23.2897,VALID,97,VALID,0.715234,
2010-11-02, 03:18:04,VALID,997.79,VALID,0,VALID,93.3637,VALID,0,VALID,23.2507,VALID,87,VALID,0.974219,
2010-11-02, 03:19:04,VALID,997.764,VALID,0,VALID,93.3408,VALID,0,VALID,23.2117,VALID,76,VALID,0.8375,
2010-11-02, 03:20:04,VALID,997.799,VALID,0,VALID,93.3484,VALID,0,VALID,23.1921,VALID,76,VALID,0.835938,
2010-11-02, 03:21:04,VALID,997.788,VALID,0,VALID,93.3026,VALID,0,VALID,23.1921,VALID,76,VALID,0.664844,
2010-11-02, 03:22:04,VALID,997.809,VALID,0,VALID,93.2797,VALID,0,VALID,23.1939,VALID,75,VALID,0.678906,
2010-11-02, 03:23:04,VALID,997.807,VALID,0,VALID,93.2416,VALID,0,VALID,23.1531,VALID,73,VALID,0.644531,
2010-11-02, 03:24:04,VALID,997.822,VALID,0,VALID,93.2187,VALID,0,VALID,23.1336,VALID,73,VALID,0.666797,
2010-11-02, 03:25:04,VALID,997.809,VALID,0,VALID,93.1958,VALID,0,VALID,23.1549,VALID,73,VALID,0.491406,
2010-11-02, 03:26:04,VALID,997.813,VALID,0,VALID,93.1577,VALID,0,VALID,23.1336,VALID,73,VALID,0.389844,
2010-11-02, 03:27:04,VALID,997.834,VALID,0,VALID,93.1424,VALID,0,VALID,23.1531,VALID,73,VALID,0.542969,
2010-11-02, 03:28:04,VALID,997.847,VALID,0,VALID,93.1119,VALID,0,VALID,23.1336,VALID,62,VALID,0.626953,
2010-11-02, 03:29:04,VALID,997.846,VALID,0,VALID,93.0814,VALID,0,VALID,23.1549,VALID,39,VALID,0.629687,
2010-11-02, 03:30:04,VALID,997.849,VALID,0,VALID,93.0508,VALID,0,VALID,23.1141,VALID,28,VALID,0.780859,
2010-11-02, 03:31:04,VALID,997.89,VALID,0,VALID,93.028,VALID,0,VALID,23.1354,VALID,28,VALID,0.828125,
2010-11-02, 03:32:04,VALID,997.849,VALID,0,VALID,92.9898,VALID,0,VALID,23.1141,VALID,28,VALID,0.760156,
2010-11-02, 03:33:04,VALID,997.887,VALID,0,VALID,93.0051,VALID,0,VALID,23.0946,VALID,28,VALID,0.524609,
2010-11-02, 03:34:04,VALID,997.868,VALID,0,VALID,92.9898,VALID,0,VALID,23.0946,VALID,28,VALID,0.6375,
2010-11-02, 03:35:04,VALID,997.889,VALID,0,VALID,92.9898,VALID,0,VALID,23.0946,VALID,28,VALID,0.521484,
2010-11-02, 03:36:04,VALID,997.9,VALID,0,VALID,92.9822,VALID,0.112286,VALID,23.0751,VALID,28,VALID,0.464453,
2010-11-02, 03:37:04,VALID,997.93,VALID,0,VALID,92.9669,VALID,0,VALID,23.0769,VALID,28,VALID,0.379687,
2010-11-02, 03:38:04,VALID,997.909,VALID,0,VALID,92.9898,VALID,0,VALID,23.0751,VALID,28,VALID,0.380469,
2010-11-02, 03:39:04,VALID,997.935,VALID,0,VALID,92.9822,VALID,0,VALID,23.0573,VALID,28,VALID,0.402344,
2010-11-02, 03:40:04,VALID,997.948,VALID,0,VALID,93.0203,VALID,0,VALID,23.0769,VALID,28,VALID,0.417969,
2010-11-02, 03:41:04,VALID,997.94,VALID,0,VALID,93.0203,VALID,0,VALID,23.0556,VALID,28,VALID,0.215234,
2010-11-02, 03:42:04,VALID,997.96,VALID,0,VALID,93.0508,VALID,0,VALID,23.0769,VALID,28,VALID,0.244141,
2010-11-02, 03:43:04,VALID,997.991,VALID,0,VALID,93.0508,VALID,0,VALID,23.0573,VALID,28,VALID,0.0046875,
2010-11-02, 03:44:04,VALID,997.995,VALID,0,VALID,93.0661,VALID,0,VALID,23.0769,VALID,28,VALID,0,
2010-11-02, 03:45:04,VALID,998.06,VALID,0,VALID,93.0585,VALID,0,VALID,23.0573,VALID,28,VALID,0,
2010-11-02, 03:46:04,VALID,998.061,VALID,0,VALID,93.0737,VALID,0,VALID,23.0769,VALID,28,VALID,0,
2010-11-02, 03:47:04,VALID,998.078,VALID,0,VALID,93.0966,VALID,0,VALID,23.0573,VALID,28,VALID,0,